Satellite: NOAA-15
Catalog number: 25338
Epoch time: 06326.40386941
Element set: 761
Inclination: 098.5221 deg
RA of node: 324.0290 deg
Eccentricity: 0.0009785
Arg of perigee: 273.8681 deg
Mean anomaly: 086.1397 deg
Mean motion: 14.24612387 rev/day
Decay rate: 6.2e-07 rev/day^2
Epoch rev: 44324
Checksum: 312
Satellite: RESURS
Catalog number: 25394
Epoch time: 06326.22720036
Element set: 508
Inclination: 098.4727 deg
RA of node: 023.6222 deg
Eccentricity: 0.0002359
Arg of perigee: 072.5689 deg
Mean anomaly: 287.5747 deg
Mean motion: 14.24118292 rev/day
Decay rate: 1.5e-07 rev/day^2
Epoch rev: 43489
Checksum: 303
Satellite: FENGYUN1
Catalog number: 25730
Epoch time: 06324.60397807
Element set: 0879
Inclination: 098.6408 deg
RA of node: 311.3408 deg
Eccentricity: 0.0015258
Arg of perigee: 056.5778 deg
Mean anomaly: 303.6858 deg
Mean motion: 14.11818461 rev/day
Decay rate: 1.72e-06 rev/day^2
Epoch rev: 38808
Checksum: 325
Satellite: OKEAN-0
Catalog number: 25860
Epoch time: 06326.44622064
Element set: 908
Inclination: 097.7308 deg
RA of node: 333.3930 deg
Eccentricity: 0.0001198
Arg of perigee: 035.5180 deg
Mean anomaly: 324.6109 deg
Mean motion: 14.73406757 rev/day
Decay rate: 1.32e-06 rev/day^2
Epoch rev: 39505
Checksum: 289
Satellite: NOAA-16
Catalog number: 26536
Epoch time: 06326.26565954
Element set: 153
Inclination: 099.0896 deg
RA of node: 294.9129 deg
Eccentricity: 0.0011051
Arg of perigee: 038.2098 deg
Mean anomaly: 321.9877 deg
Mean motion: 14.12384859 rev/day
Decay rate: 2.39e-06 rev/day^2
Epoch rev: 31789
Checksum: 346
Satellite: NOAA-17
Catalog number: 27453
Epoch time: 06326.35816098
Element set: 172
Inclination: 098.6071 deg
RA of node: 035.3744 deg
Eccentricity: 0.0011362
Arg of perigee: 339.5667 deg
Mean anomaly: 020.5050 deg
Mean motion: 14.23829547 rev/day
Decay rate: 1.99e-06 rev/day^2
Epoch rev: 22928
Checksum: 314
Satellite: NOAA-18
Catalog number: 28654
Epoch time: 06326.34061347
Element set: 730
Inclination: 098.8066 deg
RA of node: 266.3452 deg
Eccentricity: 0.0014852
Arg of perigee: 131.6098 deg
Mean anomaly: 228.6357 deg
Mean motion: 14.11010050 rev/day
Decay rate: 2.9e-07 rev/day^2
Epoch rev: 7768
Checksum: 298
/EX
SB KEPS @ AMSAT $ORB06326.M
Orbital Elements 06326.MISC
HR AMSAT ORBITAL ELEMENTS FOR MANNED AND MISCELLANEOUS SATELLITES
FROM WA5QGD FORT WORTH,TX November 22, 2006
Send SUBSCRIBE KEPS/UNSUBSCRIBE KEPS to majordomo at amsat.org only
BID: ORB06326.M
TO ALL RADIO AMATEURS BT
Satellite: HUBBLE
Catalog number: 20580
Epoch time: 06324.77849593
Element set: 0760
Inclination: 028.4666 deg
RA of node: 109.0266 deg
Eccentricity: 0.0003522
Arg of perigee: 049.9790 deg
Mean anomaly: 310.1105 deg
Mean motion: 15.00135239 rev/day
Decay rate: 5.08e-06 rev/day^2
Epoch rev: 70863
Checksum: 287
Satellite: UARS
Catalog number: 21701
Epoch time: 06325.91658792
Element set: 925
Inclination: 056.9732 deg
RA of node: 131.7675 deg
Eccentricity: 0.0102881
Arg of perigee: 149.7967 deg
Mean anomaly: 210.9083 deg
Mean motion: 15.45538902 rev/day
Decay rate: 9.769e-05 rev/day^2
Epoch rev: 83367
Checksum: 346
Satellite: PO-34
Catalog number: 25520
Epoch time: 06325.93371959
Element set: 615
Inclination: 028.4602 deg
RA of node: 055.7167 deg
Eccentricity: 0.0005944
Arg of perigee: 153.3883 deg
Mean anomaly: 206.6952 deg
Mean motion: 15.16848956 rev/day
Decay rate: 5.48e-06 rev/day^2
Epoch rev: 44602
Checksum: 327
Satellite: ISS
Catalog number: 25544
Epoch time: 06326.51982752
Element set: 116
Inclination: 051.6356 deg
RA of node: 091.3163 deg
Eccentricity: 0.0010713
Arg of perigee: 248.1038 deg
Mean anomaly: 160.6573 deg
Mean motion: 15.78330151 rev/day
Decay rate: 1.5828e-04 rev/day^2
Epoch rev: 45814
Checksum: 286
Satellite: OO-38
Catalog number: 26063
Epoch time: 06326.06387880
Element set: 772
Inclination: 100.2057 deg
RA of node: 285.6322 deg
Eccentricity: 0.0037168
Arg of perigee: 023.0767 deg
Mean anomaly: 337.2075 deg
Mean motion: 14.35785878 rev/day
Decay rate: 2.6e-07 rev/day^2
Epoch rev: 35732
Checksum: 316
Satellite: NO-45
Catalog number: 26932
Epoch time: 06326.20309388
Element set: 462
Inclination: 067.0531 deg
RA of node: 320.3920 deg
Eccentricity: 0.0004262
Arg of perigee: 239.8005 deg
Mean anomaly: 120.2673 deg
Mean motion: 14.29541121 rev/day
Decay rate: -1.4e-07 rev/day^2
Epoch rev: 26855
Checksum: 269
Satellite: UWE-1
Catalog number: 28892
Epoch time: 06326.37022478
Element set: 609
Inclination: 098.1486 deg
RA of node: 221.8730 deg
Eccentricity: 0.0018306
Arg of perigee: 040.3439 deg
Mean anomaly: 319.9116 deg
Mean motion: 14.59425459 rev/day
Decay rate: 1.73e-06 rev/day^2
Epoch rev: 5704
Checksum: 310
Satellite: CO-58
Catalog number: 28895
Epoch time: 06326.42442374
Element set: 591
Inclination: 098.1505 deg
RA of node: 222.0617 deg
Eccentricity: 0.0018734
Arg of perigee: 040.3838 deg
Mean anomaly: 319.8741 deg
Mean motion: 14.59475237 rev/day
Decay rate: 1.64e-06 rev/day^2
Epoch rev: 5693
Checksum: 328
Satellite: NCUBE2
Catalog number: 28897
Epoch time: 06324.25970908
Element set: 0149
Inclination: 098.1474 deg
RA of node: 219.9080 deg
Eccentricity: 0.0018260
Arg of perigee: 047.9074 deg
Mean anomaly: 312.3649 deg
Mean motion: 14.59631991 rev/day
Decay rate: 2.57e-06 rev/day^2
Epoch rev: 04889
Checksum: 343
/EX
More information about the Keps
mailing list